Home   Weather   Palma   Past weeks
Flag for Spain

Past Weather in Palma, Majorca, Spain — Yesterday and Last 2 Weeks

Now
70 °F

Passing clouds.


Feels Like: 70 °F
Forecast: 59 / 46 °F
Wind: 14 mph from East

Location: Palma De Mallorca / Son San Juan

Current Time: Mar 25, 2019 at 1:56:23 pm

Latest Report: Mar 25, 2019 at 1:00 pm


Visibility: N/A

Pressure: 30.12 "Hg

Humidity: 40%

Dew Point: 45 °F

Location of PalmaLocation

Past Weather in Palma — Graph

°F

Palma Temperature Yesterday

Maximum temperature yesterday: 66 °F (at 1:00 pm)
Minimum temperature yesterday: 43 °F (at 1:30 am)
Average temperature yesterday: 55 °F

High & Low Weather Summary for the Past Weeks

 TemperatureHumidityPressure
High73 °F (Mar 15, 2:00 pm)100% (Mar 10, 9:00 pm)30.45 "Hg (Mar 10, 9:00 pm)
Low39 °F (Mar 17, 7:00 am)29% (Mar 15, 2:30 pm)29.92 "Hg (Mar 17, 2:00 pm)
Average55 °F81%30.23 "Hg
* Reported Mar 10 12:00 pm — Mar 25 12:30 pm, Palma. Weather by CustomWeather, © 2019

Note: Actual official high and low records may vary slightly from our data, if they occured in-between our weather recording intervals... More about our weather records

Advertising

Palma Weather History for the Previous 24 Hours

Scroll right to see more
 ConditionsComfort  
Time TempWeatherWind HumidityBarometerVisibility
12:30 pm
Mon, Mar 25
70 °FPassing clouds.17 mph38%30.12 "HgN/A
12:00 pm70 °FPassing clouds.14 mph38%30.12 "HgN/A
11:30 am70 °FPassing clouds.16 mph38%30.12 "HgN/A
11:00 am70 °FPassing clouds.20 mph35%30.15 "HgN/A
10:30 am68 °FPassing clouds.13 mph38%30.15 "HgN/A
10:00 am64 °FPassing clouds.2 mph52%30.15 "HgN/A
9:30 am61 °FSunny.2 mph63%30.15 "Hg10 mi
9:00 am55 °FSunny.1 mph77%30.12 "Hg10 mi
8:30 am52 °FSunny.2 mph88%30.12 "Hg10 mi
8:00 am48 °FPassing clouds.3 mph100%30.15 "HgN/A
7:30 am43 °FPassing clouds.3 mph100%30.12 "HgN/A
7:00 am39 °FPassing clouds.3 mph100%30.12 "HgN/A
6:30 am39 °FClear.2 mph100%30.12 "Hg10 mi
6:00 am39 °FClear.2 mph100%30.12 "Hg10 mi
5:30 am41 °FClear.No wind100%30.12 "Hg10 mi
5:00 am41 °FClear.2 mph100%30.12 "Hg10 mi
4:30 am41 °FClear.1 mph100%30.12 "Hg10 mi
4:00 am43 °FClear.No wind100%30.12 "Hg10 mi
3:30 am43 °FClear.5 mph100%30.12 "Hg10 mi
3:00 am45 °FClear.2 mph100%30.15 "Hg10 mi
2:00 am46 °FClear.No wind100%30.15 "Hg10 mi
1:30 am45 °FClear.1 mph100%30.15 "Hg10 mi
1:00 am46 °FClear.1 mph100%30.15 "Hg10 mi
12:30 am46 °FClear.3 mph100%30.15 "Hg10 mi
12:00 am48 °FClear.3 mph100%30.15 "Hg10 mi
11:30 pm
Sun, Mar 24
48 °FClear.5 mph100%30.18 "Hg10 mi
11:00 pm50 °FClear.2 mph100%30.18 "Hg10 mi
10:30 pm52 °FClear.3 mph100%30.18 "Hg10 mi
10:00 pm52 °FPassing clouds.3 mph100%30.18 "HgN/A
9:30 pm52 °FClear.3 mph100%30.18 "Hg10 mi
9:00 pm55 °FClear.2 mph100%30.18 "Hg10 mi
8:30 pm55 °FClear.3 mph100%30.15 "Hg10 mi
8:00 pm59 °FClear.5 mph88%30.15 "Hg10 mi
7:30 pm61 °FPassing clouds.3 mph94%30.15 "HgN/A
7:00 pm63 °FSunny.7 mph88%30.15 "Hg10 mi
6:30 pm63 °FPassing clouds.7 mph88%30.15 "HgN/A
6:00 pm64 °FPassing clouds.10 mph83%30.15 "HgN/A
5:30 pm64 °FPassing clouds.10 mph78%30.15 "HgN/A
5:00 pm64 °FPassing clouds.13 mph78%30.15 "HgN/A
4:30 pm66 °FPassing clouds.13 mph68%30.15 "HgN/A
4:00 pm66 °FPassing clouds.13 mph68%30.15 "HgN/A
3:30 pm66 °FPassing clouds.13 mph68%30.15 "HgN/A
3:00 pm66 °FPassing clouds.13 mph68%30.18 "HgN/A
2:30 pm64 °FPassing clouds.14 mph78%30.18 "HgN/A
2:00 pm66 °FPassing clouds.12 mph68%30.18 "HgN/A
1:30 pm66 °FPassing clouds.10 mph64%30.21 "HgN/A
1:00 pm66 °FPassing clouds.8 mph64%30.21 "HgN/A
Weather by CustomWeather, © 2019

See weather overview